Location: Antioch Church
(34.9543°N, 88.5145°W)
Time: 00:45:01
(UTC+00:00)

Cosmos 292 Rocket - Pass Details

Date: 11 December 2019
Orbit: 674 x 694 km, 74.0° (Epoch: 27 January)

Event Time Altitude Azimuth Distance (km) Brightness Sun altitude
Rises 00:14:43 0° 339° (NNW) 3,076 7.2 -18.3°
Reaches altitude 10° 00:17:03 10° 336° (NNW) 2,155 6.4 -18.8°
Maximum altitude 00:21:52 65° 256° (WSW) 762 4.2 -19.7°
Drops below altitude 10° 00:26:37 10° 174° (S) 2,135 6.4 -20.7°
Sets 00:28:56 0° 172° (S) 3,045 7.2 -21.2°
